Weather History for Bishop, CA

Change the Weather History Date:

Saturday, October 12, 2013

  Actual Average Record
Temperature  
Mean Temperature 52 °F 58 °F  
Max Temperature 70 °F 78 °F 93 °F (1950)
Min Temperature 33 °F 39 °F 26 °F (2008)
Degree Days  
Heating Degree Days 13 7  
Month to date heating degree days 120 64  
Since 1 July heating degree days 176 107  
Cooling Degree Days 0 0  
Month to date cooling degree days 0 7  
Year to date cooling degree days 1337 1103  
Growing Degree Days 2 (Base 50)    
Moisture  
Dew Point 28 °F    
Average Humidity 50    
Maximum Humidity 82    
Minimum Humidity 18    
Precipitation  
Precipitation 0.00 in 0.01 in 0.25 in (2000)
Month to date precipitation 0.13 0.11  
Year to date precipitation 1.24 3.67  
Snow  
Snow 0.00 in 0.00 in - ()
Month to date snowfall 0.0 0.0  
Since 1 July snowfall 0.0 0.0  
Since 1 September snowfall 0.0 0.0  
Snow Depth 0.00 in    
Sea Level Pressure  
Sea Level Pressure 29.88 in    
Wind  
Wind Speed 7 mph (WSW)    
Max Wind Speed 20 mph    
Max Gust Speed 25 mph    
Visibility 10 miles    
Events      
T = Trace of Precipitation, MM = Missing Value Source: NWS Daily Summary

Daily Weather History Graph

Daily Weather History Graph

Search for Another Location

Airport:

Trip Planner

Search our weather history database for the weather conditions in past years. The results will help you decide how hot, cold, wet, or windy it might be!

Date:

Astronomy

Oct. 12, 2013 Rise Set
Actual Time 6:58 AM PDT 6:20 PM PDT
Civil Twilight 6:32 AM PDT 6:46 PM PDT
Nautical Twilight 6:02 AM PDT 7:16 PM PDT
Astronomical Twilight 5:32 AM PDT 7:46 PM PDT
Moon 2:26 PM PDT (10/12) 12:15 AM PDT (10/12)
Length of Visible Light 12h 13m
Length of Day
11h 21m
First Quarter, 60% of the Moon is Illuminated
Oct 12
First Quarter
Oct 18
Full
Oct 26
Last Quarter
Nov 3
New
Nov 9
First Quarter

Hourly Weather History & Observations

Time (PDT) Temp. Windchill Dew Point Humidity Pressure Visibility Wind Dir Wind Speed Gust Speed Precip Events Conditions
12:56 AM 46.0 °F 43.1 °F 32.0 °F 58% 29.95 in 10.0 mi NNW 5.8 mph - N/A   Clear
1:56 AM 45.0 °F 42.6 °F 32.0 °F 60% 29.96 in 10.0 mi West 4.6 mph - N/A   Clear
2:56 AM 41.0 °F 36.4 °F 30.9 °F 67% 29.95 in 10.0 mi WNW 6.9 mph - N/A   Clear
3:56 AM 37.0 °F 32.4 °F 30.0 °F 76% 29.95 in 10.0 mi NW 5.8 mph - N/A   Clear
4:56 AM 37.9 °F 34.4 °F 28.9 °F 70% 29.96 in 10.0 mi NNW 4.6 mph - N/A   Clear
5:56 AM 34.0 °F 29.8 °F 28.0 °F 79% 29.97 in 10.0 mi North 4.6 mph - N/A   Clear
6:56 AM 33.1 °F 26.1 °F 27.0 °F 78% 29.99 in 10.0 mi NNW 8.1 mph - N/A   Clear
7:56 AM 41.0 °F - 30.0 °F 65% 29.98 in 10.0 mi Calm Calm - N/A   Clear
8:56 AM 48.9 °F - 30.9 °F 50% 29.98 in 10.0 mi Calm Calm - N/A   Clear
9:56 AM 55.9 °F - 30.0 °F 37% 29.96 in 10.0 mi Calm Calm - N/A   Clear
10:56 AM 60.1 °F - 30.0 °F 32% 29.95 in 10.0 mi Calm Calm - N/A   Clear
11:56 AM 63.0 °F - 28.9 °F 28% 29.92 in 10.0 mi SE 6.9 mph - N/A   Clear
12:56 PM 66.0 °F - 30.0 °F 26% 29.86 in 10.0 mi South 9.2 mph 18.4 mph N/A   Clear
1:56 PM 69.1 °F - 27.0 °F 21% 29.81 in 10.0 mi SSE 16.1 mph - N/A   Clear
2:56 PM 70.0 °F - 28.0 °F 21% 29.79 in 10.0 mi South 16.1 mph 21.9 mph N/A   Clear
3:56 PM 69.1 °F - 27.0 °F 21% 29.79 in 10.0 mi South 16.1 mph 23.0 mph N/A   Clear
4:56 PM 69.1 °F - 25.0 °F 19% 29.77 in 10.0 mi SSE 16.1 mph - N/A   Clear
5:56 PM 66.0 °F - 28.0 °F 24% 29.78 in 10.0 mi SSE 13.8 mph - N/A   Clear
6:56 PM 62.1 °F - 26.1 °F 25% 29.79 in 10.0 mi SSE 8.1 mph - N/A   Clear
7:56 PM 60.1 °F - 26.1 °F 27% 29.78 in 10.0 mi SSW 8.1 mph - N/A   Clear
8:56 PM 55.9 °F - 28.0 °F 34% 29.78 in 10.0 mi West 4.6 mph - N/A   Clear
9:56 PM 51.1 °F - 27.0 °F 39% 29.79 in 10.0 mi WNW 8.1 mph - N/A   Clear
10:56 PM 50.0 °F - 24.1 °F 36% 29.80 in 10.0 mi North 4.6 mph - N/A   Clear
11:56 PM 46.9 °F - 24.1 °F 41% 29.80 in 10.0 mi West 5.8 mph - N/A   Clear